When you browse on this site, cookies collect data to enhance your experience and personalize the content and advertising you see.
Visit our Privacy Policy to learn more. By continuing to use the site, you agree to this use of cookies and data.
  • In Romania
  • List of Countries
  • For 7 days
  • Water Temperature
  • Satellite Maps
  • Weather Map
  • Weather Widgets
  • user-avatar
    Login

    Hourly Weather Santa Fe

    Today, 18 January, Friday

    Time Temperature Precipitation Wind Pressure Humidity
    00:00 +16°C° 3 mm 7 mps 762 mmHg 91%
    01:00 +16°C° 3 mm 7 mps 762 mmHg 92%
    02:00 +16°C° 3 mm 6 mps 762 mmHg 92%
    03:00 +16°C° 3.1 mm 6 mps 762 mmHg 93%
    04:00 +16°C° 3.1 mm 5 mps 763 mmHg 93%
    05:00 +16°C° 3.1 mm 5 mps 763 mmHg 94%
    06:00 +16°C° 0.1 mm 5 mps 763 mmHg 92%
    07:00 +16°C° 0.1 mm 5 mps 763 mmHg 91%
    08:00 +17°C° 0.1 mm 4 mps 763 mmHg 90%
    09:00 +19°C° 0 mm 5 mps 763 mmHg 84%
    10:00 +21°C° 0 mm 5 mps 763 mmHg 77%
    11:00 +22°C° 0 mm 5 mps 764 mmHg 71%
    12:00 +23°C° 0.1 mm 5 mps 763 mmHg 70%
    13:00 +23°C° 0.1 mm 4 mps 763 mmHg 68%
    14:00 +25°C° 0.1 mm 4 mps 762 mmHg 67%
    15:00 +25°C° 0 mm 4 mps 762 mmHg 66%
    16:00 +26°C° 0 mm 4 mps 762 mmHg 64%
    17:00 +26°C° 0 mm 4 mps 761 mmHg 63%
    18:00 +24°C° 0 mm 3 mps 762 mmHg 68%
    19:00 +22°C° 0 mm 3 mps 762 mmHg 74%
    20:00 +20°C° 0 mm 2 mps 762 mmHg 79%
    21:00 +20°C° 0 mm 2 mps 762 mmHg 81%
    22:00 +19°C° 0 mm 2 mps 763 mmHg 84%
    23:00 +19°C° 0 mm 2 mps 763 mmHg 86%

    Tomorrow, 19 January, Saturday

    Time Temperature Precipitation Wind Pressure Humidity
    00:00 +19°C° 0 mm 1 mps 763 mmHg 87%
    01:00 +19°C° 0 mm 1 mps 763 mmHg 89%
    02:00 +18°C° 0 mm 1 mps 763 mmHg 90%
    03:00 +18°C° 0 mm 1 mps 763 mmHg 89%
    04:00 +17°C° 0 mm 2 mps 763 mmHg 89%
    05:00 +17°C° 0 mm 2 mps 763 mmHg 89%
    06:00 +18°C° 0 mm 2 mps 764 mmHg 84%
    07:00 +19°C° 0 mm 3 mps 764 mmHg 79%
    08:00 +21°C° 0 mm 3 mps 764 mmHg 74%
    09:00 +23°C° 0 mm 4 mps 764 mmHg 68%
    10:00 +25°C° 0 mm 4 mps 764 mmHg 62%
    11:00 +27°C° 0 mm 4 mps 763 mmHg 56%
    12:00 +28°C° 0 mm 4 mps 763 mmHg 55%
    13:00 +28°C° 0 mm 4 mps 762 mmHg 53%
    14:00 +29°C° 0 mm 4 mps 762 mmHg 52%
    15:00 +28°C° 0 mm 4 mps 761 mmHg 54%
    16:00 +28°C° 0 mm 4 mps 761 mmHg 57%
    17:00 +28°C° 0 mm 4 mps 760 mmHg 60%
    18:00 +26°C° 0 mm 4 mps 760 mmHg 66%
    19:00 +24°C° 0 mm 3 mps 760 mmHg 73%
    20:00 +23°C° 0 mm 2 mps 761 mmHg 79%
    21:00 +21°C° 0 mm 2 mps 761 mmHg 81%
    22:00 +21°C° 0 mm 2 mps 761 mmHg 83%
    23:00 +20°C° 0 mm 2 mps 762 mmHg 85%

    Day after tomorrow, 20 January, Sunday

    Time Temperature Precipitation Wind Pressure Humidity
    00:00 +20°C° 0 mm 2 mps 761 mmHg 87%
    01:00 +19°C° 0 mm 2 mps 761 mmHg 88%
    02:00 +19°C° 0 mm 2 mps 760 mmHg 90%
    03:00 +19°C° 0 mm 2 mps 760 mmHg 91%
    04:00 +18°C° 0 mm 2 mps 760 mmHg 92%
    05:00 +18°C° 0 mm 2 mps 760 mmHg 93%
    06:00 +20°C° 0 mm 2 mps 760 mmHg 88%
    07:00 +21°C° 0 mm 3 mps 760 mmHg 83%
    08:00 +22°C° 0 mm 3 mps 760 mmHg 78%
    09:00 +25°C° 0 mm 3 mps 760 mmHg 73%
    10:00 +27°C° 0 mm 3 mps 760 mmHg 67%
    11:00 +28°C° 0 mm 3 mps 759 mmHg 62%
    12:00 +29°C° 0.1 mm 3 mps 759 mmHg 60%
    13:00 +30°C° 0.1 mm 3 mps 758 mmHg 57%
    14:00 +31°C° 0.1 mm 3 mps 757 mmHg 55%
    15:00 +30°C° 0 mm 3 mps 757 mmHg 56%
    16:00 +30°C° 0 mm 3 mps 756 mmHg 57%
    17:00 +30°C° 0 mm 3 mps 756 mmHg 58%
    18:00 +28°C° 0 mm 3 mps 756 mmHg 64%
    19:00 +27°C° 0 mm 2 mps 756 mmHg 70%
    20:00 +25°C° 0 mm 2 mps 756 mmHg 76%
    21:00 +24°C° 0 mm 2 mps 756 mmHg 80%
    22:00 +24°C° 0 mm 2 mps 757 mmHg 83%
    23:00 +23°C° 0 mm 2 mps 757 mmHg 87%

    21 January, Monday

    Time Temperature Precipitation Wind Pressure Humidity
    00:00 +23°C° 0 mm 1 mps 757 mmHg 89%
    01:00 +22°C° 0 mm 1 mps 757 mmHg 91%
    02:00 +22°C° 0 mm 1 mps 756 mmHg 93%
    03:00 +22°C° 0 mm 1 mps 756 mmHg 93%
    04:00 +22°C° 0 mm 1 mps 756 mmHg 94%
    05:00 +19°C° 0 mm 0 mps 756 mmHg 94%
    06:00 +21°C° 0 mm 0 mps 757 mmHg 88%
    07:00 +23°C° 0 mm 0 mps 757 mmHg 82%
    08:00 +27°C° 0 mm 1 mps 757 mmHg 76%
    09:00 +27°C° 0 mm 0 mps 757 mmHg 68%
    10:00 +29°C° 0 mm 0 mps 757 mmHg 60%
    11:00 +31°C° 0 mm 0 mps 757 mmHg 52%
    12:00 +32°C° 0 mm 0 mps 757 mmHg 48%
    13:00 +33°C° 0 mm 0 mps 756 mmHg 44%
    14:00 +33°C° 0 mm 0 mps 756 mmHg 41%
    15:00 +33°C° 0 mm 0 mps 755 mmHg 41%
    16:00 +35°C° 0 mm 1 mps 755 mmHg 41%
    17:00 +34°C° 0 mm 1 mps 754 mmHg 42%
    18:00 +32°C° 0 mm 1 mps 754 mmHg 47%
    19:00 +30°C° 0 mm 1 mps 754 mmHg 52%
    20:00 +28°C° 0 mm 1 mps 755 mmHg 58%
    21:00 +28°C° 0 mm 1 mps 755 mmHg 62%
    22:00 +27°C° 0 mm 2 mps 755 mmHg 65%
    23:00 +26°C° 0 mm 2 mps 756 mmHg 69%

    22 January, Tuesday

    Time Temperature Precipitation Wind Pressure Humidity
    00:00 +26°C° 0 mm 2 mps 755 mmHg 73%
    01:00 +25°C° 0 mm 2 mps 755 mmHg 76%
    02:00 +25°C° 0 mm 2 mps 755 mmHg 80%
    03:00 +25°C° 0 mm 2 mps 754 mmHg 82%
    04:00 +24°C° 0 mm 2 mps 754 mmHg 83%
    05:00 +24°C° 0 mm 2 mps 754 mmHg 85%
    06:00 +26°C° 0 mm 2 mps 755 mmHg 80%
    07:00 +27°C° 0 mm 2 mps 755 mmHg 74%
    08:00 +29°C° 0 mm 3 mps 755 mmHg 69%
    09:00 +30°C° 0 mm 3 mps 755 mmHg 63%
    10:00 +33°C° 0 mm 3 mps 755 mmHg 58%
    11:00 +35°C° 0 mm 4 mps 755 mmHg 52%
    12:00 +36°C° 0 mm 4 mps 754 mmHg 50%
    13:00 +37°C° 0 mm 3 mps 753 mmHg 48%
    14:00 +38°C° 0 mm 3 mps 753 mmHg 47%
    15:00 +38°C° 0 mm 3 mps 752 mmHg 48%
    16:00 +37°C° 0 mm 3 mps 752 mmHg 50%
    17:00 +37°C° 0 mm 3 mps 752 mmHg 51%
    18:00 +35°C° 0 mm 3 mps 752 mmHg 57%
    19:00 +34°C° 0 mm 2 mps 752 mmHg 63%
    20:00 +31°C° 0 mm 2 mps 753 mmHg 68%
    21:00 +30°C° 0.5 mm 2 mps 753 mmHg 73%
    22:00 +29°C° 0.5 mm 2 mps 753 mmHg 77%
    23:00 +28°C° 0.5 mm 2 mps 753 mmHg 82%

    23 January, Wednesday

    Time Temperature Precipitation Wind Pressure Humidity
    00:00 +28°C° 0.1 mm 2 mps 753 mmHg 83%
    01:00 +28°C° 0.1 mm 2 mps 753 mmHg 84%
    02:00 +28°C° 0.1 mm 1 mps 753 mmHg 85%
    03:00 +27°C° 6.8 mm 2 mps 753 mmHg 88%
    04:00 +27°C° 6.8 mm 2 mps 753 mmHg 92%
    05:00 +27°C° 6.8 mm 3 mps 752 mmHg 95%
    06:00 +27°C° 0.4 mm 3 mps 753 mmHg 94%
    07:00 +27°C° 0.4 mm 3 mps 754 mmHg 93%
    08:00 +28°C° 0.4 mm 3 mps 755 mmHg 91%
    09:00 +29°C° 0.3 mm 3 mps 755 mmHg 87%
    10:00 +29°C° 0.3 mm 3 mps 755 mmHg 83%
    11:00 +30°C° 0.3 mm 3 mps 755 mmHg 78%
    12:00 +30°C° 0 mm 3 mps 755 mmHg 78%
    13:00 +30°C° 0 mm 2 mps 755 mmHg 77%
    14:00 +30°C° 0 mm 2 mps 754 mmHg 77%
    15:00 +31°C° 0 mm 2 mps 754 mmHg 73%
    16:00 +32°C° 0 mm 2 mps 753 mmHg 70%
    17:00 +34°C° 0 mm 2 mps 753 mmHg 66%
    18:00 +32°C° 0 mm 2 mps 753 mmHg 73%
    19:00 +30°C° 0 mm 2 mps 753 mmHg 80%
    20:00 +29°C° 0 mm 3 mps 753 mmHg 86%
    21:00 +28°C° 0 mm 2 mps 753 mmHg 88%
    22:00 +27°C° 0 mm 2 mps 754 mmHg 90%
    23:00 +27°C° 0 mm 2 mps 754 mmHg 92%
    Show more